Location: Asheville, NC
(35.6000°N, 82.5500°W)
Time: 14:20:39
(UTC-04:00)

Vanguard 1 Rocket - Pass Details

Date: 14 December 2017
Orbit: 652 x 4225 km, 34.3° (Epoch: 17 July)

Event Time Altitude Azimuth Distance (km) Brightness Sun altitude
Rises 20:56:16 0° 279° (W) 5,528 12.2 -43.4°
Reaches altitude 10° 20:59:10 10° 278° (W) 4,882 11.7 -44.0°
Maximum altitude 21:14:55 78° 195° (SSW) 3,508 10.0 -47.2°
Enters shadow 21:16:56 74° 154° (SSE) 3,664 10.0 -47.6°
Drops below altitude 10° 21:40:53 10° 114° (ESE) 7,425 - -52.5°
Sets 21:46:39 0° 114° (ESE) 8,386 - -53.6°
